Printer-friendly version
Follow the MPC on Twitter Follow the MPC on Facebook The MPC blog
Minor Planet Center

MPEC 2004-T32 : 2004 TF10

The following Minor Planet Electronic Circular may be linked-to from your own Web pages, but must not otherwise be redistributed electronically.

A form allowing access to any MPEC is at the bottom of this page.


Read MPEC 2004-T31 Read MPEC 2004-T33


M.P.E.C. 2004-T32                                Issued 2004 Oct.  9, 15:06 UT

     The Minor Planet Electronic Circulars contain information on unusual
         minor planets and routine data on comets.  They are published
   on behalf of Commission 20 of the International Astronomical Union by the
          Minor Planet Center, Smithsonian Astrophysical Observatory,
                          Cambridge, MA 02138, U.S.A.

                  Supported in part by the Brinson Foundation
             Prepared using the Tamkin Foundation Computer Network

                              MPC@CFA.HARVARD.EDU
          URL http://cfa-www.harvard.edu/iau/mpc.html  ISSN 1523-6714

                                   2004 TF10

Observations:
     K04T10F* C2004 10 08.21956 22 33 24.80 +32 59 28.5          19.9   ET032704
     K04T10F  C2004 10 08.23054 22 33 25.78 +32 59 09.4          20.0   ET032704
     K04T10F  C2004 10 08.24153 22 33 26.59 +32 58 50.9          20.4   ET032704
     K04T10F  C2004 10 08.25252 22 33 27.61 +32 58 31.9          20.0   ET032704
     K04T10F 5C2004 10 09.12280 22 34 51.13 +32 33 56.6          19.5 R ET032673
     K04T10F 5C2004 10 09.12500 22 34 51.33 +32 33 52.9                 ET032673
     K04T10F 5C2004 10 09.12870 22 34 51.64 +32 33 47.2                 ET032673
     K04T10F 5C2004 10 09.13403 22 34 52.11 +32 33 38.5                 ET032673
     K04T10F  C2004 10 09.13952 22 34 52.34 +32 33 31.0          19.1 R ET032G90
     K04T10F  C2004 10 09.14266 22 34 52.68 +32 33 26.3          19.2 R ET032G90
     K04T10F  C2004 10 09.14580 22 34 52.93 +32 33 20.1          19.1 R ET032G90
     K04T10F  C2004 10 09.30268 22 35 05.83 +32 28 56.0          19.7 R ET032854
     K04T10F  C2004 10 09.30624 22 35 05.91 +32 28 50.6          19.6 R ET032854
     K04T10F  C2004 10 09.30975 22 35 06.28 +32 28 43.1          19.5 R ET032854

Observer details:
673 Table Mountain Observatory, Wrightwood.  Observer J. Young.  0.6-m
    reflector + CCD.
704 Lincoln Laboratory ETS, New Mexico.  Observers M. Blythe, F. Shelly,
    M. Bezpalko, R. Huber, L. Manguso, D. Torres, R. Kracke, M. McCleary,
    H. Stange, A. Milner.  Measurers J. Stuart, R. Sayer, J. Evans, J. Kommers.
    1.0-m f/2.15 reflector + CCD.
854 Sabino Canyon Observatory, Tucson.  Observer J. E. McGaha.  0.36-m f/10.0
    Schmidt-Cassegrain + CCD.
G90 Three Buttes Observatory, Tucson.  Observer G. R. Jones.  0.40-m
    Ritchey-Chretien + CCD.

Orbital elements:
2004 TF10
Epoch 2004 Oct. 2.0 TT = JDT 2453280.5                  MPC
M  45.77473              (2000.0)            P               Q
n   0.58588730     Peri.  340.71488     +0.23374575     +0.96314956
a   1.4144687      Node   302.59711     -0.87003153     +0.14609686
e   0.3503308      Incl.    9.08749     -0.43405998     +0.22582878
P   1.68           H   20.5           G   0.15
From 14 observations 2004 Oct. 8-9.

Ephemeris:
2004 TF10                a,e,i = 1.41, 0.35, 9                   q = 0.9189
Date    TT    R. A. (2000) Decl.     Delta      r     Elong.  Phase     V
2004 10 02    22 23.33   +36 08.4    0.253    1.196   135.8    35.7    19.4
2004 10 12    22 39.29   +31 15.9    0.316    1.250   137.6    32.6    19.9
2004 10 22    22 54.69   +27 20.5    0.388    1.303   136.4    31.8    20.4
2004 11 01    23 10.42   +24 17.9    0.469    1.357   133.1    32.3    20.9
2004 11 11    23 26.71   +22 02.1    0.559    1.408   128.5    33.4    21.4
2004 11 21    23 43.67   +20 27.5    0.660    1.458   123.3    34.5    21.8

Kyle E. Smalley              (C) Copyright 2004 MPC           M.P.E.C. 2004-T32

Read MPEC 2004-T31 Read MPEC 2004-T33


MPEC number:

Enter an MPEC number in one of the following forms:

  • 1997-B01 (the full form)
  • J97B01 (the packed version of the full form)
  • B01 (the abbreviated form)

Valid HTML 4.01!